Weather History for Flagstaff, AZ

Change the Weather History Date:

Thursday, February 13, 2014

  Actual Average Record
Temperature  
Mean Temperature 46 °F 32 °F  
Max Temperature 65 °F 44 °F 68 °F (1977)
Min Temperature 27 °F 19 °F -18 °F (1905)
Degree Days  
Heating Degree Days 19 33  
Month to date heating degree days 417 440  
Since 1 July heating degree days 4236 4356  
Cooling Degree Days 0 0  
Month to date cooling degree days 0 0  
Year to date cooling degree days 0 0  
Moisture  
Dew Point 19 °F    
Average Humidity 41    
Maximum Humidity 69    
Minimum Humidity 13    
Precipitation  
Precipitation 0.00 in 0.08 in 1.84 in (1992)
Month to date precipitation 0.12 0.95  
Year to date precipitation 0.29 3.00  
Snow  
Snow 0.00 in 0.80 in 9.50 in (1992)
Month to date snowfall 2.1 10.2  
Since 1 July snowfall 33.5 62.5  
Snow Depth 0.00 in    
Sea Level Pressure  
Sea Level Pressure 30.09 in    
Wind  
Wind Speed 5 mph (SW)    
Max Wind Speed 20 mph    
Max Gust Speed 24 mph    
Visibility 10 miles    
Events      
T = Trace of Precipitation, MM = Missing Value Source: NWS Daily Summary

Daily Weather History Graph

Daily Weather History Graph

Search for Another Location

Airport:

Trip Planner

Search our weather history database for the weather conditions in past years. The results will help you decide how hot, cold, wet, or windy it might be!

Date:

Astronomy

Feb. 13, 2014 Rise Set
Actual Time 7:14 AM MST 6:07 PM MST
Civil Twilight 6:48 AM MST 6:33 PM MST
Nautical Twilight 6:19 AM MST 7:03 PM MST
Astronomical Twilight 5:49 AM MST 7:32 PM MST
Moon 5:18 PM MST (2/13) 6:09 AM MST (2/13)
Length of Visible Light 11h 44m
Length of Day
10h 52m
Waxing Gibbous, 99% of the Moon is Illuminated
Feb 13
Waxing Gibbous
Feb 14
Full
Feb 22
Last Quarter
Mar 1
New
Mar 8
First Quarter

Hourly Weather History & Observations

Time (MST) Temp. Windchill Dew Point Humidity Pressure Visibility Wind Dir Wind Speed Gust Speed Precip Events Conditions
12:57 AM 30.0 °F 24.1 °F 19.9 °F 66% 30.11 in 10.0 mi SW 5.8 mph - N/A   Clear
1:57 AM 34.0 °F 29.8 °F 19.9 °F 56% 30.07 in 10.0 mi WSW 4.6 mph - N/A   Clear
2:57 AM 33.1 °F - 21.0 °F 61% 30.08 in 10.0 mi Calm Calm - N/A   Clear
3:57 AM 30.9 °F 26.2 °F 21.0 °F 67% 30.09 in 10.0 mi SSW 4.6 mph - N/A   Clear
4:57 AM 30.0 °F - 19.9 °F 66% 30.10 in 10.0 mi Calm Calm - N/A   Clear
5:57 AM 30.0 °F 26.5 °F 19.9 °F 66% 30.12 in - SSW 3.5 mph - N/A   Clear
6:57 AM 30.0 °F - 19.9 °F 66% 30.16 in 10.0 mi Calm Calm - N/A   Clear
7:57 AM 30.0 °F 26.5 °F 21.9 °F 72% 30.22 in 10.0 mi South 3.5 mph - N/A   Clear
8:57 AM 46.9 °F - 25.0 °F 42% 30.17 in 10.0 mi SW 4.6 mph - N/A   Clear
9:57 AM 54.0 °F - 19.9 °F 26% 30.15 in 10.0 mi SSW 6.9 mph - N/A   Clear
10:57 AM 60.1 °F - 12.0 °F 15% 30.12 in 10.0 mi North - - N/A   Clear
11:57 AM 62.1 °F - 12.9 °F 15% 30.09 in 10.0 mi Variable 6.9 mph - N/A   Clear
12:57 PM 64.0 °F - 12.9 °F 14% 30.06 in 10.0 mi West 12.7 mph 23.0 mph N/A   Clear
1:57 PM 63.0 °F - 12.9 °F 14% 30.00 in 10.0 mi WSW 9.2 mph 18.4 mph N/A   Clear
2:57 PM 64.0 °F - 12.9 °F 14% 30.00 in 10.0 mi WNW 9.2 mph - N/A   Clear
3:57 PM 63.0 °F - 19.0 °F 18% 30.01 in 10.0 mi SW 13.8 mph 20.7 mph N/A   Clear
4:57 PM 62.1 °F - 15.1 °F 16% 30.02 in 10.0 mi WSW 12.7 mph 20.7 mph N/A   Clear
5:57 PM 55.0 °F - 19.9 °F 25% 30.06 in 10.0 mi SW 5.8 mph - N/A   Clear
6:57 PM 46.9 °F - 19.9 °F 34% 30.12 in 10.0 mi SW 3.5 mph - N/A   Clear
7:57 PM 42.1 °F - 21.0 °F 43% 30.14 in 10.0 mi Calm Calm - N/A   Clear
8:57 PM 37.0 °F 34.5 °F 19.9 °F 50% 30.08 in - West 3.5 mph - N/A   Clear
9:57 PM 37.9 °F 35.5 °F 21.0 °F 51% 30.08 in 10.0 mi Variable 3.5 mph - N/A   Clear
10:57 PM 35.1 °F 31.0 °F 21.0 °F 57% 30.06 in 10.0 mi SW 4.6 mph - N/A   Clear
11:57 PM 34.0 °F 29.8 °F 21.0 °F 59% 30.06 in 10.0 mi SW 4.6 mph - N/A   Clear